Wind_Speed
22 22 21 21 20 19 18 17 16 12 11 12 11 8 8 8 10 10 12 12 12 12 13 15 18 30 41 44 51 56 56 60 61 63 63 63 63 63 62 61 60 61 58 56 55 55 55 55 56
20 21 18 18 19 20 17 17 18 15 12 13 14 12 9 11 9 7 11 11 11 12 12 13 16 19 27 39 45 48 55 58 61 62 63 63 64 64 65 64 63 61 61 60 59 58 58 56 54
20 16 15 16 17 19 19 18 17 14 13 12 14 15 12 11 13 11 10 14 12 13 14 14 15 17 20 24 34 41 47 53 59 60 61 63 63 64 66 66 67 66 64 63 63 62 59 60 58
20 15 14 15 15 14 16 17 16 12 11 10 10 13 15 13 12 13 13 12 12 15 15 15 15 17 17 22 29 33 39 44 51 58 61 61 64 65 65 65 68 68 69 68 66 66 65 63 62
18 16 11 13 14 14 14 13 14 13 10 8 8 7 12 13 14 12 12 12 13 14 14 15 16 17 18 20 22 28 36 40 43 48 55 60 63 64 66 68 68 68 69 70 70 69 69 68 66
18 15 10 12 14 15 12 12 9 10 11 9 7 7 6 9 13 13 13 13 13 14 17 16 16 18 18 20 22 25 27 34 41 45 47 51 57 61 64 67 70 71 71 70 72 70 72 71 71
21 16 9 12 14 15 9 12 11 4 7 11 11 8 3 7 7 7 8 12 17 16 16 17 20 20 20 21 20 21 23 28 33 36 40 43 48 50 55 60 66 70 72 74 75 74 74 74 72
22 18 10 13 14 16 18 16 12 9 6 10 19 13 10 7 8 8 6 8 10 15 20 20 19 24 23 25 24 24 24 25 28 32 35 37 40 43 46 50 54 58 62 67 71 74 75 76 77
25 20 14 11 15 17 18 20 21 15 6 12 21 17 14 10 11 9 9 10 12 14 16 23 23 23 24 28 28 26 28 28 27 28 30 34 37 39 40 44 47 49 50 54 58 62 65 68 71
27 23 22 14 16 16 18 20 23 24 12 11 24 22 13 15 12 12 13 13 14 16 17 18 23 28 28 29 29 30 32 31 31 30 31 31 30 32 37 39 38 41 44 48 49 51 54 57 62
27 27 26 22 20 20 20 19 23 28 22 16 22 24 26 21 12 12 15 19 20 20 20 22 21 22 25 29 31 31 31 32 32 32 33 34 35 33 33 32 35 38 40 41 43 45 48 51 52
29 30 30 28 26 25 25 21 27 28 34 25 19 28 26 21 17 14 20 20 21 25 28 28 27 26 25 26 25 27 30 34 35 33 33 34 35 36 35 34 34 34 34 36 37 39 41 44 46
32 33 33 34 31 31 31 27 31 32 35 36 30 27 27 24 26 24 23 25 24 25 28 32 32 32 31 31 31 30 29 30 32 34 37 39 37 36 35 36 38 39 38 38 37 38 38 39 40
32 35 38 37 35 35 35 35 33 36 39 41 40 37 32 29 33 34 31 33 31 28 27 30 35 35 37 35 32 33 33 33 35 34 34 35 41 41 40 39 38 38 38 40 41 41 41 41 41
34 37 40 40 38 37 35 41 40 37 42 47 42 42 38 37 40 40 37 34 38 40 36 33 33 37 36 36 37 36 35 35 37 36 36 38 39 39 43 45 45 44 43 43 41 42 43 44 44
39 38 40 42 40 41 36 41 48 40 41 48 47 42 45 45 45 45 44 46 44 44 45 45 41 38 39 40 41 41 41 40 38 38 38 38 40 40 41 42 45 47 49 50 49 48 47 46 46
37 40 42 43 44 43 42 43 51 55 49 46 45 47 50 49 48 46 45 47 47 47 47 48 49 47 47 48 47 46 48 45 44 43 42 39 41 42 43 44 43 45 46 48 51 55 54 52 50
42 41 42 43 45 46 48 48 47 53 60 57 52 56 56 54 52 51 48 46 49 50 52 52 51 49 50 52 54 54 53 54 51 49 50 48 45 45 46 47 47 46 47 49 49 47 48 53 59
50 46 42 42 48 46 44 48 51 55 59 57 58 65 66 64 63 60 56 55 54 56 54 52 50 51 51 53 54 53 56 60 61 58 55 54 54 52 51 52 51 50 49 48 49 49 50 52 52
47 40 45 40 41 43 39 37 44 53 51 58 61 68 68 69 71 70 67 63 62 64 63 59 59 58 59 59 62 59 53 53 56 60 63 58 52 53 55 57 57 56 53 51 50 49 49 51 52
50 52 45 44 50 45 46 47 53 64 57 51 56 67 73 76 74 77 76 73 72 70 70 69 67 68 67 65 67 67 67 61 56 57 58 61 61 60 58 57 58 58 56 55 59 58 55 55 51
51 57 58 61 58 57 59 55 62 68 63 68 69 64 71 74 75 74 73 77 80 80 79 79 78 77 75 73 73 72 70 72 72 70 68 67 68 70 67 67 68 67 66 64 66 63 60 63 64
61 63 65 68 65 65 72 75 64 71 76 83 85 78 72 73 79 80 82 81 81 82 81 84 86 87 86 86 82 82 82 82 83 83 81 80 80 75 74 73 73 75 75 76 76 73 69 68 66
73 75 76 80 77 73 78 86 78 86 91 90 86 84 78 81 81 82 83 86 86 87 87 87 81 83 84 85 87 89 89 87 87 86 88 85 85 89 87 84 85 82 82 82 80 80 78 77 76
79 77 84 90 87 87 94 93 92 96 95 91 89 85 83 80 89 86 88 88 91 92 91 94 95 93 93 93 94 93 91 92 94 95 93 91 89 91 94 97 97 95 92 90 90 89 87 84 84
81 83 90 97 95 93 101 104 100 99 98 95 91 90 84 89 93 94 98 98 98 100 102 102 103 106 105 105 104 104 103 102 100 102 103 102 103 104 101 103 103 100 98 99 96 96 94 95 93
90 94 101 104 102 104 102 106 101 102 101 97 91 90 90 92 100 108 105 106 109 107 109 111 107 110 113 115 119 114 113 113 114 111 109 116 112 109 109 109 112 113 111 110 110 107 103 102 101
100 99 103 106 108 110 111 106 102 99 99 100 97 97 104 106 104 106 105 109 112 114 117 120 119 118 117 116 118 121 124 122 123 122 121 122 123 125 122 120 120 122 122 122 120 119 117 116 115
104 103 112 114 113 118 115 106 103 105 107 110 109 108 108 106 114 115 112 111 114 117 118 117 122 125 125 127 127 127 127 129 128 127 128 125 130 131 134 135 132 130 129 129 128 126 126 124 122
108 111 121 123 119 118 119 114 108 112 116 119 117 113 110 109 108 107 109 113 118 121 120 119 121 126 127 128 131 135 140 135 141 142 141 140 134 132 135 134 138 142 139 140 138 133 134 131 131
Wind_Direction
321 321 325 326 322 319 321 315 314 303 274 241 246 231 223 229 224 252 252 261 256 237 229 226 220 224 224 224 224 224 227 228 231 232 231 231 231 232 233 235 236 237 239 241 243 245 247 251 252
322 319 321 320 321 321 319 314 315 306 291 260 243 233 218 218 213 219 236 251 262 260 249 239 233 227 227 228 227 227 227 227 230 232 233 235 236 235 233 233 233 237 240 242 244 246 249 251 253
317 315 316 317 315 324 322 320 321 310 299 278 252 241 236 223 220 223 221 223 241 257 265 262 248 239 232 228 229 231 231 231 231 232 234 236 238 238 234 235 236 236 239 241 245 247 249 250 253
310 310 318 318 320 324 330 338 343 334 315 297 280 256 246 240 231 226 230 226 226 238 253 261 257 246 244 241 233 232 233 234 235 234 236 236 236 239 241 239 237 239 240 241 243 245 246 248 250
306 303 310 307 316 316 325 327 349 346 340 325 311 271 256 250 248 247 235 239 235 223 235 238 243 244 242 239 237 237 237 237 237 236 237 238 239 240 240 242 244 244 244 244 245 246 248 248 250
295 299 307 306 311 313 320 316 345 337 336 341 318 291 289 280 277 270 258 247 240 236 225 219 226 234 235 235 235 236 237 239 241 242 242 241 241 241 242 242 243 245 248 250 251 251 252 253 252
292 292 297 293 301 301 312 309 308 324 319 312 297 308 336 311 296 298 280 263 248 242 235 228 221 222 223 231 235 233 232 235 240 241 244 246 246 246 246 246 245 245 246 248 249 250 252 255 255
284 286 282 285 292 301 310 311 302 303 312 291 291 292 294 284 284 292 285 287 274 251 241 234 230 225 223 222 226 229 232 234 236 238 241 242 245 245 246 247 248 249 249 249 249 249 251 252 254
282 282 275 270 281 296 305 305 302 306 302 295 294 309 294 282 290 288 284 274 270 259 245 237 234 240 234 228 226 228 230 233 231 233 236 239 241 242 244 246 248 249 250 252 252 252 252 252 252
281 280 278 279 281 291 294 297 294 299 317 265 287 313 304 296 299 289 277 270 271 270 264 255 248 239 238 234 230 232 232 231 233 232 232 230 232 237 240 241 241 242 244 246 247 249 251 252 253
275 277 277 278 274 281 286 284 283 289 292 296 296 299 305 305 309 273 269 275 273 267 266 263 260 251 247 251 251 247 241 236 236 236 238 240 237 233 234 236 235 238 241 244 246 247 248 249 249
274 274 275 274 273 275 277 281 282 279 283 279 285 296 300 302 302 295 283 269 265 265 268 269 267 261 258 256 255 254 252 248 246 245 243 243 247 244 239 237 239 240 241 242 242 244 245 247 248
281 279 277 278 282 277 273 272 279 282 282 284 279 279 285 295 293 282 277 272 267 274 279 280 276 273 266 262 261 256 252 252 252 252 252 249 246 247 244 245 244 244 243 243 243 245 246 246 245
284 285 283 282 281 277 279 278 275 274 282 284 286 283 282 283 275 276 277 280 285 279 274 271 273 274 278 278 272 269 267 261 259 257 258 257 253 252 251 252 252 252 250 249 246 246 246 246 245
281 284 287 287 282 281 280 281 276 272 273 276 277 279 289 277 271 274 273 274 278 280 276 268 265 270 273 272 275 276 275 272 270 264 260 263 261 256 252 254 256 257 257 258 256 256 253 250 248
277 280 282 285 283 280 276 279 279 273 272 275 279 281 277 275 274 277 278 277 270 268 274 277 272 268 268 272 272 271 273 273 272 269 264 261 259 259 257 253 253 255 257 259 260 258 257 256 256
279 276 278 277 278 279 279 275 279 285 277 271 273 272 273 270 271 274 274 273 272 270 268 269 270 271 273 273 271 269 270 270 270 270 266 264 263 261 257 255 254 254 254 252 253 256 257 259 259
278 281 284 280 276 275 277 277 275 278 281 281 280 276 273 269 267 268 270 268 268 269 270 270 271 268 267 269 271 269 269 270 270 267 266 265 265 264 260 258 256 253 254 256 256 256 256 256 255
281 279 279 287 282 276 278 275 273 274 274 276 276 278 280 278 272 267 266 266 264 268 268 266 264 267 269 269 270 268 269 265 268 268 268 266 265 263 263 260 257 257 256 255 255 254 256 257 259
281 281 278 275 279 276 274 292 289 276 283 275 273 269 269 274 275 273 270 267 262 265 267 263 263 264 266 266 266 264 264 268 265 265 266 264 260 261 260 258 259 256 256 256 256 255 256 256 258
275 276 277 276 269 268 264 271 290 289 282 284 281 272 269 269 270 267 267 269 267 263 262 262 261 261 262 262 263 263 262 260 259 261 258 256 256 258 258 256 250 249 251 255 253 255 257 256 256
292 294 295 295 290 283 290 275 288 291 287 287 287 285 272 264 265 267 269 268 266 264 263 261 260 260 261 262 263 259 258 259 260 261 258 254 252 255 255 258 256 249 250 254 255 257 257 255 255
293 291 294 292 294 297 298 291 291 290 294 292 291 285 267 266 266 267 265 265 265 265 265 264 263 261 261 261 262 261 261 261 259 259 261 260 258 255 252 254 257 260 258 255 255 256 255 257 258
297 294 293 296 297 300 299 296 299 297 294 290 285 282 277 260 262 262 262 262 262 261 261 259 258 261 262 262 262 259 259 259 259 259 260 258 259 257 256 257 257 260 258 260 259 259 261 258 255
288 293 291 294 296 300 298 300 301 299 296 289 287 282 275 274 264 259 260 260 259 259 259 258 256 254 255 260 262 262 261 260 259 257 257 257 255 256 258 257 258 261 261 260 261 262 262 261 259
292 297 300 297 295 295 296 301 304 298 295 289 286 282 275 270 269 269 259 259 260 257 258 259 256 255 255 255 257 258 258 259 260 262 262 259 257 255 254 256 257 255 256 260 260 259 260 262 263
295 294 298 300 297 296 301 300 301 297 295 294 290 283 278 274 268 270 271 261 259 261 258 258 258 254 255 255 256 256 255 256 257 260 260 259 258 258 258 253 253 256 258 255 257 258 259 260 261
293 295 302 299 294 295 298 296 297 294 294 294 291 284 283 279 274 272 272 267 265 262 260 258 256 255 255 255 253 256 254 255 255 257 259 257 258 257 256 255 254 254 255 256 257 259 261 263 263
294 291 296 299 297 296 297 298 299 297 293 293 291 287 282 277 272 275 273 269 267 265 265 262 261 258 256 254 254 255 255 254 254 257 256 259 256 256 257 256 256 255 255 255 255 255 257 259 260
295 292 296 298 298 297 298 299 296 295 294 294 294 290 285 281 279 277 274 272 271 270 268 265 264 264 262 260 259 258 257 257 256 255 259 262 259 258 255 255 255 254 255 254 254 253 255 257 256
Height
10825 10824 10823 10821 10820 10818 10817 10815 10815 10814 10813 10815 10816 10816 10816 10816 10816 10815 10814 10815 10816 10818 10820 10822 10825 10828 10830 10832 10836 10840 10843 10847 10851 10855 10858 10861 10864 10867 10870 10874 10876 10878 10882 10884 10886 10888 10890 10892 10894
10824 10822 10822 10819 10817 10815 10814 10813 10812 10811 10811 10811 10812 10813 10814 10814 10814 10814 10813 10813 10813 10813 10815 10817 10819 10821 10825 10827 10829 10832 10835 10839 10843 10847 10850 10853 10856 10859 10862 10864 10867 10870 10873 10876 10878 10881 10883 10884 10887
10821 10820 10819 10818 10816 10814 10811 10810 10810 10809 10808 10809 10809 10810 10811 10811 10811 10811 10812 10812 10812 10811 10811 10812 10814 10816 10818 10821 10824 10827 10829 10831 10834 10837 10841 10845 10847 10850 10853 10856 10858 10861 10863 10867 10869 10872 10874 10877 10880
10819 10818 10817 10815 10813 10812 10811 10809 10807 10807 10806 10806 10806 10806 10807 10808 10809 10810 10810 10811 10810 10810 10809 10809 10809 10811 10812 10814 10816 10818 10821 10824 10826 10829 10831 10834 10837 10840 10844 10847 10849 10851 10853 10857 10859 10861 10864 10867 10869
10817 10817 10817 10814 10812 10811 10810 10809 10807 10806 10805 10804 10804 10803 10803 10805 10805 10807 10808 10808 10808 10808 10806 10805 10805 10805 10806 10807 10808 10810 10813 10815 10817 10819 10821 10824 10827 10830 10834 10837 10839 10842 10844 10847 10849 10851 10853 10857 10859
10813 10813 10813 10813 10810 10809 10810 10809 10808 10806 10804 10803 10801 10801 10803 10804 10804 10805 10805 10805 10805 10804 10804 10803 10802 10801 10801 10802 10802 10803 10805 10806 10808 10810 10812 10814 10817 10819 10823 10826 10828 10831 10833 10837 10838 10842 10843 10845 10847
10809 10810 10811 10810 10809 10807 10809 10807 10806 10805 10803 10801 10800 10800 10801 10801 10801 10801 10801 10800 10800 10800 10801 10800 10799 10799 10798 10798 10799 10799 10799 10800 10801 10802 10804 10806 10808 10810 10812 10815 10817 10820 10823 10825 10827 10830 10831 10833 10835
10805 10806 10808 10808 10806 10805 10804 10803 10804 10803 10802 10800 10797 10798 10799 10799 10798 10798 10798 10796 10795 10795 10795 10797 10796 10795 10795 10794 10794 10794 10794 10795 10796 10796 10796 10797 10798 10800 10802 10804 10806 10808 10811 10813 10815 10817 10819 10821 10822
10801 10803 10805 10806 10805 10803 10802 10800 10798 10799 10802 10799 10795 10796 10796 10796 10796 10796 10795 10793 10791 10789 10789 10788 10789 10790 10791 10791 10790 10790 10791 10791 10790 10790 10790 10791 10791 10791 10792 10794 10796 10798 10800 10802 10803 10805 10807 10809 10811
10797 10799 10799 10801 10800 10800 10800 10798 10795 10793 10798 10797 10791 10791 10794 10794 10795 10793 10792 10790 10787 10786 10784 10783 10783 10784 10783 10784 10784 10785 10786 10786 10786 10786 10785 10785 10785 10785 10785 10786 10787 10789 10791 10792 10794 10795 10796 10797 10799
10793 10793 10793 10796 10795 10795 10795 10795 10792 10789 10792 10793 10789 10788 10788 10792 10791 10790 10789 10786 10783 10781 10779 10777 10777 10777 10778 10778 10779 10781 10781 10782 10782 10782 10782 10781 10780 10779 10779 10780 10780 10780 10782 10783 10784 10784 10786 10786 10788
10787 10787 10788 10789 10789 10789 10788 10790 10786 10786 10781 10787 10789 10783 10784 10786 10788 10787 10781 10778 10776 10774 10772 10772 10772 10771 10770 10770 10771 10771 10772 10772 10773 10774 10774 10774 10775 10776 10776 10775 10775 10775 10775 10776 10777 10777 10778 10779 10780
10782 10782 10782 10782 10783 10783 10781 10784 10780 10779 10776 10775 10780 10781 10780 10782 10779 10775 10774 10774 10773 10773 10771 10768 10766 10765 10765 10764 10763 10764 10764 10763 10764 10765 10765 10765 10765 10766 10768 10769 10768 10768 10768 10769 10770 10770 10770 10771 10772
10776 10775 10774 10775 10777 10777 10776 10775 10775 10772 10767 10766 10769 10771 10776 10776 10768 10766 10765 10765 10766 10766 10765 10763 10759 10759 10758 10756 10758 10757 10757 10758 10757 10757 10757 10756 10756 10757 10757 10757 10758 10758 10759 10759 10761 10761 10761 10762 10763
10770 10770 10768 10769 10770 10768 10770 10763 10764 10766 10760 10755 10761 10761 10767 10762 10759 10757 10757 10758 10756 10755 10754 10754 10754 10751 10750 10750 10748 10747 10747 10748 10747 10749 10749 10748 10747 10747 10747 10747 10746 10746 10748 10747 10749 10750 10751 10751 10753
10763 10764 10761 10759 10763 10762 10764 10756 10747 10755 10756 10747 10750 10755 10750 10748 10749 10750 10751 10747 10746 10746 10745 10743 10742 10744 10741 10741 10740 10740 10738 10737 10737 10736 10738 10737 10736 10737 10737 10735 10734 10735 10736 10737 10737 10737 10737 10738 10740
10755 10756 10755 10754 10753 10754 10756 10755 10744 10737 10742 10744 10746 10742 10738 10738 10738 10738 10738 10737 10736 10734 10735 10733 10731 10731 10731 10730 10730 10729 10727 10727 10727 10726 10725 10727 10727 10726 10727 10726 10726 10724 10722 10721 10722 10722 10725 10726 10727
10748 10748 10747 10745 10744 10746 10746 10745 10746 10739 10727 10732 10736 10731 10727 10726 10728 10728 10726 10725 10724 10723 10723 10722 10720 10719 10719 10717 10716 10717 10717 10714 10713 10714 10712 10714 10715 10715 10714 10713 10714 10713 10712 10712 10712 10713 10713 10712 10712
10736 10736 10736 10733 10733 10737 10737 10737 10735 10731 10725 10729 10726 10717 10712 10713 10714 10714 10715 10714 10712 10710 10709 10709 10708 10706 10704 10703 10702 10701 10702 10701 10700 10698 10698 10698 10700 10701 10702 10701 10699 10700 10700 10700 10701 10702 10702 10701 10702
10724 10724 10721 10723 10719 10722 10722 10724 10719 10712 10716 10714 10715 10706 10702 10700 10698 10697 10698 10699 10699 10697 10695 10694 10693 10693 10691 10689 10688 10687 10686 10684 10684 10685 10684 10683 10682 10683 10685 10686 10687 10686 10685 10685 10686 10686 10687 10689 10689
10708 10707 10705 10708 10705 10706 10707 10712 10706 10692 10701 10697 10693 10691 10687 10683 10681 10680 10678 10679 10680 10680 10679 10678 10676 10675 10674 10673 10672 10672 10671 10669 10668 10667 10667 10667 10666 10666 10666 10667 10669 10670 10668 10668 10669 10669 10671 10672 10673
10695 10689 10689 10686 10687 10688 10688 10695 10692 10680 10682 10676 10672 10670 10667 10664 10662 10659 10658 10658 10657 10658 10658 10657 10657 10656 10654 10654 10653 10652 10652 10650 10650 10650 10650 10649 10648 10648 10647 10646 10646 10650 10651 10649 10649 10651 10653 10655 10656
10677 10674 10669 10666 10668 10672 10669 10663 10679 10666 10661 10653 10650 10647 10644 10641 10638 10639 10637 10635 10633 10633 10634 10634 10633 10633 10632 10631 10631 10630 10628 10629 10629 10628 10628 10628 10628 10629 10629 10628 10626 10625 10629 10629 10628 10630 10632 10635 10637
10655 10652 10648 10644 10645 10649 10645 10636 10662 10643 10637 10631 10625 10622 10616 10613 10611 10613 10613 10611 10609 10610 10609 10609 10608 10605 10605 10605 10605 10605 10604 10603 10603 10603 10604 10605 10605 10606 10607 10607 10606 10606 10606 10606 10606 10607 10609 10611 10615
10634 10633 10626 10620 10621 10620 10620 10616 10623 10617 10606 10601 10594 10593 10591 10588 10586 10585 10584 10582 10581 10582 10581 10581 10580 10579 10578 10579 10578 10576 10574 10575 10576 10576 10576 10576 10577 10579 10579 10581 10581 10580 10582 10581 10582 10583 10583 10585 10589
10614 10607 10601 10589 10595 10599 10596 10591 10596 10586 10577 10569 10566 10564 10563 10559 10557 10554 10550 10551 10550 10548 10547 10548 10546 10546 10548 10547 10547 10546 10546 10545 10544 10543 10544 10546 10546 10547 10549 10550 10550 10551 10552 10553 10554 10555 10555 10556 10559
10589 10583 10579 10567 10562 10562 10575 10569 10564 10553 10543 10540 10536 10534 10530 10529 10524 10519 10518 10515 10513 10510 10511 10511 10512 10512 10511 10512 10513 10512 10511 10511 10510 10511 10513 10513 10513 10513 10515 10518 10518 10519 10520 10523 10523 10526 10526 10526 10528
10558 10556 10550 10544 10533 10534 10546 10548 10542 10529 10520 10511 10508 10507 10502 10496 10493 10490 10486 10482 10477 10475 10472 10470 10468 10472 10474 10474 10473 10474 10473 10473 10474 10475 10476 10477 10477 10480 10480 10481 10483 10486 10487 10490 10491 10494 10495 10497 10497
10533 10531 10526 10518 10512 10502 10502 10516 10515 10499 10490 10484 10478 10473 10468 10463 10460 10456 10452 10448 10443 10437 10435 10434 10431 10431 10431 10430 10433 10433 10433 10433 10432 10433 10434 10434 10436 10439 10442 10444 10446 10447 10449 10450 10453 10457 10460 10465 10468
10508 10506 10496 10485 10484 10477 10467 10473 10482 10465 10455 10447 10442 10439 10434 10427 10423 10421 10416 10413 10409 10403 10398 10397 10395 10392 10393 10393 10394 10395 10392 10393 10392 10393 10391 10392 10393 10395 10397 10399 10402 10406 10409 10410 10413 10417 10420 10424 10428